GW6721 Weather Reports


time (UTC)temp
F
wind
direction
speed
knots
gust
knots
rain 1hr
in
rain 24hr
in
rain mn
in
humidity
%
barometer
mb
20260509145757 54 172 0.0 0.0 0.07 0.03 0.03 90 1010.7
20260509145257 54 172 0.0 0.0 0.07 0.03 0.03 90 1010.7
20260509144754 54 138 0.0 0.0 0.07 0.03 0.03 89 1010.7
20260509144251 54 9 0.0 0.0 0.07 0.03 0.03 90 1010.7
20260509143748 54 1 0.0 0.0 0.00 0.02 0.02 90 1010.6
20260509143245 54 2 0.0 0.0 0.05 0.02 0.02 90 1010.7
20260509142741 54 2 0.0 0.0 0.05 0.02 0.02 89 1010.6
20260509142237 54 97 0.0 0.0 0.00 0.01 0.01 88 1010.4
20260509141733 54 47 0.0 0.9 0.00 0.01 0.01 87 1010.4
20260509141231 53 282 0.0 0.0 0.00 0.01 0.01 88 1010.5
20260509140727 53 153 0.9 0.9 0.00 0.01 0.01 87 1010.2
20260509140225 53 146 0.0 0.0 0.00 0.01 0.01 88 1010.2
20260509135722 53 205 0.0 0.0 0.00 0.01 0.01 87 1010.4
20260509135220 53 115 0.0 0.0 0.00 0.01 0.01 89 1010.2
20260509134716 53 175 0.0 0.9 0.00 0.01 0.01 88 1010.2
20260509134214 53 353 0.9 1.7 0.00 0.01 0.01 86 1010.4
20260509133711 53 331 0.0 0.0 0.00 0.01 0.01 86 1010.4
20260509133208 53 303 0.0 0.0 0.00 0.01 0.01 90 1010.4
20260509132706 52 168 0.0 0.0 0.00 0.01 0.01 91 1010.2
20260509132205 52 169 0.0 0.0 0.00 0.01 0.01 91 1010.3
20260509131700 52 228 0.0 0.0 0.00 0.01 0.01 91 1010.2
20260509131157 52 205 0.0 0.0 0.00 0.01 0.01 90 1010.0
20260509130653 52 244 0.0 0.0 0.00 0.01 0.01 89 1010.0
20260509130149 52 285 0.0 0.0 0.00 0.01 0.01 90 1009.9
20260509125646 52 264 0.0 0.0 0.00 0.01 0.01 90 1009.7
20260509125143 51 232 0.0 0.0 0.00 0.01 0.01 88 1009.7
20260509124639 51 231 0.0 0.0 0.00 0.01 0.01 88 1009.6
20260509124136 51 230 0.0 0.0 0.07 0.01 0.01 90 1009.9
20260509123634 51 223 0.0 0.0 0.07 0.01 0.01 88 1010.1
20260509123131 51 168 0.0 0.0 0.00 0.00 0.00 86 1010.3
20260509122627 51 349 0.0 0.0 0.00 0.00 0.00 85 1010.3
20260509122124 51 299 0.0 0.0 0.00 0.00 0.00 86 1010.4
20260509121620 51 295 0.0 0.0 0.00 0.00 0.00 86 1010.5
20260509121118 51 272 0.0 0.0 0.00 0.00 0.00 88 1010.5
20260509120616 51 341 0.0 0.9 0.00 0.00 0.00 87 1010.4
20260509120114 51 291 0.0 0.0 0.00 0.00 0.00 89 1010.4
20260509115611 51 307 0.0 0.9 0.00 0.00 0.00 90 1010.3
20260509115109 50 294 0.0 0.0 0.00 0.00 0.00 90 1010.1
20260509114607 50 297 0.0 0.9 0.00 0.00 0.00 89 1009.8
20260509114106 50 162 0.9 0.9 0.00 0.00 0.00 89 1009.8
20260509113603 50 181 0.0 0.0 0.00 0.00 0.00 90 1009.9
20260509113100 50 149 0.9 0.9 0.00 0.00 0.00 90 1009.9
20260509112556 50 179 0.9 0.9 0.00 0.00 0.00 90 1010.1
20260509112054 49 319 1.7 1.7 0.00 0.00 0.00 90 1010.1
20260509111551 49 187 0.0 0.0 0.00 0.00 0.00 90 1010.1
20260509111048 49 163 0.0 0.9 0.00 0.00 0.00 90 1009.7
20260509110545 48 226 0.0 0.9 0.00 0.00 0.00 90 1009.8
20260509110042 48 265 0.0 0.0 0.00 0.00 0.00 91 1010.0
20260509105540 48 300 0.0 0.0 0.00 0.00 0.00 91 1009.7
20260509105037 48 312 0.0 0.0 0.00 0.00 0.00 91 1009.6
20260509104534 48 300 0.9 0.9 0.00 0.00 0.00 91 1009.6
20260509104031 48 147 0.0 0.0 0.00 0.00 0.00 91 1009.3
20260509103529 48 213 0.0 0.0 0.00 0.00 0.00 92 1009.5
20260509103027 48 101 0.0 0.0 0.00 0.00 0.00 92 1009.6
20260509102524 48 357 0.0 0.0 0.00 0.00 0.00 92 1009.7
20260509102020 48 1 0.0 0.0 0.00 0.00 0.00 92 1009.5
20260509101517 47 201 0.0 0.0 0.00 0.00 0.00 93 1009.7
20260509101014 47 167 0.0 0.0 0.00 0.00 0.00 93 1009.6
20260509100511 47 166 0.0 0.0 0.00 0.00 0.00 93 1009.7
20260509100009 47 288 0.0 0.0 0.00 0.00 0.00 93 1009.7
20260509095505 47 254 0.0 0.0 0.00 0.00 0.00 93 1009.5
20260509095002 47 304 0.0 0.0 0.00 0.00 0.00 93 1009.6
20260509094458 47 300 0.0 0.0 0.00 0.00 0.00 93 1009.6
20260509093956 47 303 0.0 0.0 0.00 0.00 0.00 93 1009.6
20260509093454 47 302 0.0 0.0 0.00 0.00 0.00 93 1009.5
20260509092951 47 302 0.0 0.0 0.00 0.00 0.00 92 1009.7
20260509092449 47 302 0.0 0.0 0.00 0.00 0.00 92 1009.7
20260509091948 47 296 0.0 0.0 0.00 0.00 0.00 92 1009.7
20260509091444 47 295 0.0 0.0 0.00 0.00 0.00 92 1009.6
20260509090941 47 295 0.0 0.0 0.00 0.00 0.00 92 1009.6
20260509090438 47 257 0.0 0.0 0.00 0.00 0.00 92 1009.6
20260509085936 47 230 0.0 0.0 0.00 0.00 0.00 92 1009.6
20260509085432 47 295 0.0 0.0 0.00 0.00 0.00 92 1009.7
20260509084929 47 299 0.0 0.0 0.00 0.00 0.00 92 1009.7
20260509084426 47 321 0.0 0.0 0.00 0.00 0.00 92 1009.7
20260509083923 47 322 0.0 0.0 0.00 0.00 0.00 92 1009.7
20260509083420 47 324 0.0 0.0 0.00 0.00 0.00 92 1009.8
20260509082917 47 255 0.0 0.0 0.00 0.00 0.00 92 1009.9
20260509082415 47 201 0.0 0.0 0.00 0.00 0.00 92 1009.9
20260509081911 47 201 0.0 0.0 0.00 0.00 0.00 92 1009.8
20260509081408 47 200 0.0 0.0 0.00 0.00 0.00 92 1009.8
20260509080906 47 200 0.0 0.0 0.00 0.00 0.00 92 1009.9
20260509080403 46 272 0.0 0.0 0.00 0.00 0.00 92 1010.0
20260509075902 47 294 0.0 0.0 0.00 0.00 0.00 92 1009.9
20260509075358 47 247 0.0 0.0 0.00 0.00 0.00 92 1009.9
20260509074856 47 247 0.0 0.0 0.00 0.00 0.00 92 1009.9
20260509074353 47 86 0.0 0.0 0.00 0.00 0.00 91 1009.9
20260509073849 47 88 0.0 0.0 0.00 0.00 0.00 91 1010.0
20260509073346 47 174 0.0 0.0 0.00 0.00 0.00 90 1010.0
20260509072843 48 210 0.0 0.0 0.00 0.00 0.00 90 1010.1
20260509072339 47 210 0.0 0.0 0.00 0.00 0.00 90 1010.2
20260509071836 47 272 0.0 0.0 0.00 0.00 0.00 90 1010.2
20260509071333 47 272 0.0 0.0 0.00 0.00 0.00 90 1010.3
20260509070830 48 196 0.0 0.0 0.00 0.00 0.00 90 1010.2
20260509070327 48 307 0.0 0.0 0.00 0.00 0.00 90 1010.4
20260509065823 48 210 0.0 0.0 0.00 0.00 0.00 90 1010.5
20260509065319 48 294 0.0 0.0 0.00 0.00 0.00 89 1010.6
20260509064815 48 283 0.0 0.0 0.00 0.00 0.00 89 1010.7
20260509064313 48 272 0.0 0.0 0.00 0.00 0.00 89 1010.7
20260509063810 48 291 0.0 0.0 0.00 0.00 0.00 89 1010.5
20260509063306 48 225 0.0 0.0 0.00 0.00 0.00 89 1010.4
20260509062804 48 240 0.0 0.0 0.00 0.00 0.00 88 1010.5
20260509062301 49 299 0.0 0.0 0.00 0.00 0.00 88 1010.6
20260509061758 49 183 0.0 0.0 0.00 0.00 0.00 88 1010.7
20260509061256 49 289 0.0 0.0 0.00 0.00 0.00 88 1010.8
20260509060752 49 315 0.0 0.0 0.00 0.00 0.00 87 1010.6
20260509060249 50 270 0.0 0.0 0.00 0.00 0.00 87 1010.7
20260509055745 50 228 0.0 0.0 0.00 0.00 0.00 87 1010.6
20260509055241 50 283 0.0 0.0 0.00 0.00 0.00 86 1010.8
20260509054738 50 318 0.0 0.0 0.00 0.00 0.00 85 1010.6
20260509054234 50 202 0.0 0.0 0.00 0.00 0.00 84 1010.7
20260509053733 50 202 0.0 0.0 0.00 0.00 0.00 85 1010.8
20260509053229 50 295 0.0 0.0 0.00 0.00 0.00 87 1010.7
20260509052728 50 295 0.0 0.0 0.00 0.00 0.00 86 1010.8
20260509052225 50 307 0.0 0.0 0.00 0.00 0.00 87 1010.7
20260509051722 50 308 0.0 0.0 0.00 0.00 0.00 86 1010.9
20260509051220 50 321 0.0 0.0 0.00 0.00 0.00 86 1010.9
20260509050717 51 321 0.0 0.0 0.00 0.00 0.00 85 1010.9
20260509050213 50 258 0.0 0.0 0.00 0.00 0.00 85 1010.9
20260509045711 50 329 0.0 0.0 0.00 0.00 0.00 85 1010.9
20260509045208 51 312 0.0 0.0 0.00 0.00 0.00 85 1011.0
20260509044705 51 312 0.0 0.0 0.00 0.00 0.00 84 1010.9
20260509044202 50 240 0.0 0.0 0.00 0.00 0.00 84 1010.9
20260509043658 50 241 0.0 0.0 0.00 0.00 0.00 85 1010.9
20260509043154 50 241 0.0 0.0 0.00 0.00 0.00 84 1011.0
20260509042651 50 162 0.0 0.0 0.00 0.00 0.00 83 1011.2
20260509042147 51 276 0.0 0.0 0.00 0.00 0.00 83 1011.0
20260509041643 51 324 0.0 0.0 0.00 0.00 0.00 83 1011.0
20260509041141 51 195 0.0 0.0 0.00 0.00 0.00 81 1011.0
20260509040639 51 195 0.0 0.0 0.00 0.00 0.00 82 1010.9
20260509040136 51 182 0.0 0.0 0.00 0.00 0.00 82 1010.8
20260509035633 51 195 0.0 0.0 0.00 0.00 0.00 82 1011.0
20260509035129 51 292 0.0 0.0 0.00 0.00 0.00 82 1011.2
20260509034627 51 324 0.0 0.0 0.00 0.00 0.00 82 1011.2
20260509034124 51 324 0.0 0.0 0.00 0.00 0.00 82 1011.2
20260509033621 51 324 0.0 0.0 0.00 0.00 0.00 82 1011.2
20260509033118 51 286 0.0 0.0 0.00 0.00 0.00 82 1011.0
20260509032615 52 286 0.0 0.0 0.00 0.00 0.00 81 1011.1
20260509032112 51 211 0.0 0.0 0.00 0.00 0.00 79 1011.3
20260509031610 51 220 0.0 0.0 0.00 0.00 0.00 81 1011.3
20260509031107 52 321 0.0 0.0 0.00 0.00 0.00 80 1011.4
20260509030605 51 242 0.0 0.0 0.00 0.00 0.00 78 1011.3
20260509025558 51 290 0.0 0.0 0.00 0.00 0.00 79 1011.7
20260509025054 51 329 0.0 0.0 0.00 0.00 0.00 80 1011.5
20260509024550 52 329 0.0 0.0 0.00 0.00 0.00 79 1011.3
20260509024046 52 329 0.9 0.9 0.00 0.00 0.00 78 1011.4
20260509023544 52 245 0.0 0.0 0.00 0.00 0.00 77 1011.2
20260509023040 52 209 0.0 0.0 0.00 0.00 0.00 78 1011.0
20260509022537 52 304 0.9 0.9 0.00 0.00 0.00 79 1011.0
20260509022035 52 234 0.0 0.0 0.00 0.00 0.00 78 1010.9
20260509021532 52 280 0.0 0.0 0.00 0.00 0.00 79 1011.1
20260509021028 52 304 0.0 0.0 0.00 0.00 0.00 79 1011.0
20260509020527 52 304 0.0 0.0 0.00 0.00 0.00 79 1011.0
20260509020023 53 259 0.0 0.0 0.00 0.00 0.00 77 1011.0
20260509015523 53 202 0.0 0.0 0.00 0.00 0.00 75 1010.9
20260509015019 53 229 0.0 0.0 0.00 0.00 0.00 78 1010.9
20260509014516 53 236 0.0 0.0 0.00 0.00 0.00 77 1011.2
20260509014012 53 211 0.0 0.0 0.00 0.00 0.00 77 1011.1
20260509013509 53 226 0.0 0.0 0.00 0.00 0.00 76 1010.8
20260509013005 53 325 0.0 0.0 0.00 0.00 0.00 77 1010.8
20260509012501 54 300 0.0 0.0 0.00 0.00 0.00 76 1011.1
20260509011958 54 311 0.0 0.0 0.00 0.00 0.00 75 1010.8
20260509011456 54 290 0.0 0.0 0.00 0.00 0.00 75 1010.7
20260509010953 54 221 0.0 0.0 0.00 0.00 0.00 73 1010.8
20260509010451 54 198 0.0 0.0 0.00 0.00 0.00 72 1010.8
20260509005947 54 183 0.0 0.0 0.00 0.00 0.00 73 1010.8
20260509005446 54 219 0.0 0.0 0.00 0.00 0.00 71 1010.7
20260509004945 55 296 0.0 0.0 0.00 0.00 0.00 72 1010.9
20260509004442 55 296 0.0 0.0 0.00 0.00 0.00 71 1010.8
20260509003940 55 295 0.0 0.0 0.00 0.00 0.00 70 1010.7
20260509003438 55 296 0.0 0.0 0.00 0.00 0.00 70 1010.7
20260509002935 55 172 0.0 0.0 0.00 0.00 0.00 68 1010.7
20260509002433 55 215 0.9 0.9 0.00 0.00 0.00 67 1010.8
20260509001930 56 304 0.0 0.0 0.00 0.00 0.00 68 1010.8
20260509001426 56 171 0.9 0.9 0.00 0.00 0.00 65 1010.6
20260509000923 57 305 0.0 0.0 0.00 0.00 0.00 63 1010.7
20260509000421 57 218 0.0 0.0 0.00 0.00 0.00 63 1010.7
20260508235916 57 224 0.0 0.0 0.00 0.00 0.00 63 1010.7
20260508235415 58 224 0.0 0.0 0.00 0.00 0.00 61 1010.6
20260508234911 58 287 0.0 0.0 0.00 0.00 0.00 61 1010.5
20260508234408 59 206 0.0 0.0 0.00 0.00 0.00 58 1010.3
20260508233906 59 206 0.0 0.0 0.00 0.00 0.00 55 1010.2
20260508233405 60 172 0.0 0.9 0.00 0.00 0.00 53 1010.2
20260508232901 60 331 0.0 0.9 0.00 0.00 0.00 52 1010.1
20260508232358 61 193 0.9 0.9 0.00 0.00 0.00 52 1010.1
20260508231856 61 319 0.0 0.9 0.00 0.00 0.00 52 1010.1
20260508231352 61 315 0.0 0.0 0.00 0.00 0.00 57 1010.0
20260508230849 61 188 0.0 0.0 0.00 0.00 0.00 50 1009.8
20260508230345 60 254 0.0 0.0 0.00 0.00 0.00 50 1010.0
20260508225843 60 224 0.0 0.0 0.00 0.00 0.00 51 1010.0
20260508225339 61 225 0.0 0.0 0.00 0.00 0.00 54 1010.1
20260508224838 61 224 0.0 0.0 0.00 0.00 0.00 54 1010.0
20260508224335 61 225 0.0 0.0 0.00 0.00 0.00 50 1010.1
20260508223832 61 232 0.0 0.0 0.00 0.00 0.00 48 1009.9
20260508223329 62 227 0.0 0.9 0.00 0.00 0.00 47 1010.1
20260508222827 62 35 2.6 3.5 0.00 0.00 0.00 44 1009.8
20260508222324 62 255 0.0 0.0 0.00 0.00 0.00 46 1009.8
20260508221821 63 235 0.0 0.0 0.00 0.00 0.00 46 1009.7
20260508221316 63 283 0.0 0.0 0.00 0.00 0.00 44 1009.7
20260508220813 62 179 0.0 0.9 0.00 0.00 0.00 45 1009.8
20260508220309 62 155 0.9 0.9 0.00 0.00 0.00 48 1009.8
20260508215806 62 239 0.9 0.9 0.00 0.00 0.00 46 1010.0
20260508215306 62 325 0.9 1.7 0.00 0.00 0.00 43 1009.9
20260508214759 61 217 2.6 2.6 0.00 0.00 0.00 44 1010.2
20260508214256 62 214 0.0 0.9 0.00 0.00 0.00 48 1010.2
20260508213753 62 208 0.0 0.9 0.00 0.00 0.00 44 1010.0
20260508213250 62 36 0.9 0.9 0.00 0.00 0.00 42 1010.0
20260508212746 62 133 0.9 1.7 0.00 0.00 0.00 42 1010.1
20260508212242 62 284 3.5 5.2 0.00 0.00 0.00 40 1009.9
20260508211738 62 113 0.0 0.9 0.00 0.00 0.00 41 1009.9
20260508211234 62 214 0.0 0.0 0.00 0.00 0.00 44 1009.9
20260508210732 63 259 0.0 0.0 0.00 0.00 0.00 42 1009.8
20260508210229 62 304 0.0 0.9 0.00 0.00 0.00 43 1009.7
20260508205725 62 297 0.0 0.0 0.00 0.00 0.00 44 1009.6
20260508205222 62 303 0.0 0.0 0.00 0.00 0.00 47 1009.6
20260508204718 62 206 0.9 0.9 0.00 0.00 0.00 44 1009.8
20260508204215 63 213 0.0 0.0 0.00 0.00 0.00 44 1009.8
20260508203711 62 308 1.7 2.6 0.00 0.00 0.00 40 1009.7
20260508203207 62 247 0.0 0.9 0.00 0.00 0.00 41 1009.6
20260508202703 63 354 0.9 1.7 0.00 0.00 0.00 40 1009.7
20260508202201 63 195 0.9 0.9 0.00 0.00 0.00 43 1009.6
20260508201657 63 330 0.9 0.9 0.00 0.00 0.00 41 1009.7